KI5NYZ-13 Weather Reports


Display with metric or nautical units.
time (UTC)temp
F
wind
direction
speed
MPH
gust
MPH
rain 1hr
in
rain 24hr
in
rain mn
in
humidity
%
barometer
mb
20260506023352 72 256 5.0 7.0 0.00 0.09 0.09 33 1004.5
20260506020351 73 229 11.0 11.0 0.00 0.09 0.09 30 1003.8
20260506013349 75 247 10.0 10.0 0.00 0.09 0.09 27 1003.1
20260506010348 76 245 6.0 6.0 0.00 0.09 0.09 26 1002.5
20260506003347 78 252 6.0 8.0 0.00 0.09 0.09 25 1002.2
20260506000347 79 261 8.0 9.0 0.06 0.09 0.09 24 1002.0
20260505233345 78 255 9.0 10.0 0.08 0.09 0.09 24 1001.9
20260505230344 78 282 13.0 13.0 0.01 0.02 0.02 23 1001.9
20260505223343 78 276 12.0 12.0 0.00 0.00 0.00 22 1002.1
20260505220342 79 280 11.0 11.0 0.00 0.01 0.00 23 1002.4
20260505213342 78 270 8.0 9.0 0.00 0.03 0.00 24 1002.5
20260505210340 80 264 8.0 8.0 0.00 0.05 0.00 22 1002.3
20260505203339 80 261 8.0 9.0 0.00 0.06 0.00 22 1002.6
20260505200338 80 248 6.0 6.0 0.00 0.06 0.00 23 1002.7
20260505193337 79 268 6.0 12.0 0.00 0.06 0.00 24 1002.9
20260505190336 80 285 5.0 8.0 0.00 0.06 0.00 23 1003.0
20260505183336 80 291 6.0 9.0 0.00 0.06 0.00 23 1003.1
20260505180334 80 297 6.0 11.0 0.00 0.06 0.00 22 1003.3
20260505173333 79 314 7.0 12.0 0.00 0.06 0.00 21 1003.5
20260505163331 77 340 7.0 13.0 0.00 0.06 0.00 23 1003.8
20260505160330 77 317 9.0 15.0 0.00 0.06 0.00 23 1003.8
20260505153329 75 320 7.0 12.0 0.00 0.06 0.00 25 1003.9
20260505150328 73 306 7.0 13.0 0.00 0.06 0.00 29 1004.4
20260505140326 68 303 9.0 14.0 0.00 0.06 0.00 38 1004.9
20260505123323 64 259 6.0 10.0 0.00 0.06 0.00 45 1004.8
20260505120322 62 235 4.0 5.0 0.00 0.06 0.00 50 1005.0
20260505113321 64 304 1.0 3.0 0.00 0.06 0.00 43 1004.2
20260505110320 63 319 3.0 5.0 0.00 0.06 0.00 46 1004.7
20260505100318 64 255 8.0 11.0 0.00 0.06 0.00 42 1003.6
20260505093317 64 250 6.0 9.0 0.00 0.06 0.00 43 1003.7
20260505090316 65 276 5.0 10.0 0.00 0.06 0.00 38 1003.6
20260505083315 63 248 3.0 6.0 0.00 0.06 0.00 44 1003.8
20260505074014 63 340 6.0 9.0 0.00 0.06 0.00 44 1004.1
20260505071013 66 274 4.0 6.0 0.00 0.06 0.00 37 1003.7
20260505064012 67 255 4.0 6.0 0.00 0.06 0.00 34 1003.5
20260505061011 68 253 4.0 6.0 0.00 0.06 0.00 33 1003.6
20260505054010 69 258 3.0 5.0 0.00 0.06 0.00 32 1003.7
20260505051009 69 250 3.0 5.0 0.00 0.06 0.00 30 1003.4